W9IF-4 Weather Reports


Display with metric or nautical units.
time (UTC)temp
F
wind
direction
speed
MPH
gust
MPH
rain 1hr
in
rain 24hr
in
rain mn
in
humidity
%
barometer
mb
20171125053923 65 21 0.0 0.0 0.00 0.00 0.00 1020.9
20171125053830 66 21 0.0 0.0 0.00 0.00 0.00 1020.8
20171125053823 66 21 0.0 0.0 0.00 0.00 0.00 1020.9
20171125053723 66 21 0.0 0.0 0.00 0.00 0.00 1020.8
20171125053623 66 21 0.0 0.0 0.00 0.00 0.00 1020.9
20171125053556 65 62 0.0 0.0 0.00 0.00 0.00 1020.9
20171125053523 66 62 0.0 0.0 0.00 0.00 0.00 1020.9
20171125053422 65 62 0.0 0.0 0.00 0.00 0.00 1020.9
20171125053322 65 62 0.0 0.0 0.00 0.00 0.00 1020.8
20171125053222 65 62 0.0 0.0 0.00 0.00 0.00 1020.8
20171125053103 66 62 0.0 0.0 0.00 0.00 0.00 1020.8
20171125053023 66 62 0.0 0.0 0.00 0.00 0.00 1020.9
20171125052959 66 62 0.0 0.0 0.00 0.00 0.00 1020.8
20171125052923 66 62 0.0 0.0 0.00 0.00 0.00 1020.8
20171125052823 66 62 0.0 0.0 0.00 0.00 0.00 1020.8
20171125052722 66 62 0.0 0.0 0.00 0.00 0.00 1020.8
20171125052657 66 59 3.0 0.0 0.00 0.00 0.00 1020.8
20171125052622 66 59 3.0 0.0 0.00 0.00 0.00 1020.8
20171125052522 66 62 3.0 0.0 0.00 0.00 0.00 1020.8
20171125052339 66 63 4.0 0.0 0.00 0.00 0.00 1020.7
20171125052322 66 49 3.0 0.0 0.00 0.00 0.00 1020.7
20171125052232 66 72 3.0 0.0 0.00 0.00 0.00 1020.7
20171125052223 66 63 4.0 0.0 0.00 0.00 0.00 1020.7
20171125052123 66 72 3.0 0.0 0.00 0.00 0.00 1020.7
20171125052023 66 70 4.0 0.0 0.00 0.00 0.00 1020.7
20171125051922 66 68 5.0 0.0 0.00 0.00 0.00 1020.7
20171125051822 66 65 4.0 0.0 0.00 0.00 0.00 1020.7
20171125051808 66 87 2.0 0.0 0.00 0.00 0.00 1020.7
20171125051756 66 69 3.0 0.0 0.00 0.00 0.00 1020.7
20171125051731 66 62 5.0 0.0 0.00 0.00 0.00 1020.7
20171125051722 66 87 2.0 0.0 0.00 0.00 0.00 1020.7
20171125051622 66 69 3.0 0.0 0.00 0.00 0.00 1020.7
20171125051536 65 62 4.0 0.0 0.00 0.00 0.00 1020.7
20171125051522 66 62 5.0 0.0 0.00 0.00 0.00 1020.7
20171125051422 65 62 4.0 0.0 0.00 0.00 0.00 1020.7
20171125051405 65 55 4.0 0.0 0.00 0.00 0.00 1020.6
20171125051351 65 63 5.0 0.0 0.00 0.00 0.00 1020.7
20171125051323 65 55 4.0 0.0 0.00 0.00 0.00 1020.6
20171125051222 65 63 5.0 0.0 0.00 0.00 0.00 1020.7
20171125051122 65 58 4.0 0.0 0.00 0.00 0.00 1020.7
20171125051049 66 62 3.0 0.0 0.00 0.00 0.00 1020.7
20171125051022 65 66 4.0 0.0 0.00 0.00 0.00 1020.7
20171125050922 66 62 3.0 0.0 0.00 0.00 0.00 1020.7
20171125050823 66 60 3.0 0.0 0.00 0.00 0.00 1020.6
20171125050727 66 62 5.0 0.0 0.00 0.00 0.00 1020.6
20171125050722 66 60 3.0 0.0 0.00 0.00 0.00 1020.6
20171125050622 66 63 3.0 0.0 0.00 0.00 0.00 1020.7
20171125050523 67 80 5.0 0.0 0.00 0.00 0.00 1020.5
20171125050429 67 65 5.0 0.0 0.00 0.00 0.00 1020.5
20171125050422 67 62 5.0 0.0 0.00 0.00 0.00 1020.5
20171125050322 67 80 5.0 0.0 0.00 0.00 0.00 1020.5
20171125050222 67 65 5.0 0.0 0.00 0.00 0.00 1020.5
20171125050122 67 58 5.0 0.0 0.00 0.00 0.00 1020.5
20171125050022 66 66 5.0 0.0 0.00 0.00 0.00 1020.4
20171125045922 66 72 0.0 0.0 0.00 0.00 0.00 1020.4
20171125045822 66 72 0.0 0.0 0.00 0.00 0.00 1020.4
20171125045722 67 72 0.0 0.0 0.00 0.00 0.00 1020.4
20171125045622 67 72 0.0 0.0 0.00 0.00 0.00 1020.5
20171125045522 67 72 0.0 0.0 0.00 0.00 0.00 1020.5
20171125045422 68 72 0.0 0.0 0.00 0.00 0.00 1020.5
20171125045322 68 72 0.0 0.0 0.00 0.00 0.00 1020.5
20171125045320 68 72 0.0 0.0 0.00 0.00 0.00 1020.4
20171125045258 68 72 0.0 0.0 0.00 0.00 0.00 1020.4
20171125045223 68 72 0.0 0.0 0.00 0.00 0.00 1020.4
20171125045122 68 72 0.0 0.0 0.00 0.00 0.00 1020.4
20171125045028 68 72 0.0 0.0 0.00 0.00 0.00 1020.4
20171125045022 68 72 0.0 0.0 0.00 0.00 0.00 1020.4
20171125044922 68 72 0.0 0.0 0.00 0.00 0.00 1020.4
20171125044822 68 72 0.0 0.0 0.00 0.00 0.00 1020.3
20171125044722 69 72 0.0 0.0 0.00 0.00 0.00 1020.4
20171125044622 68 72 0.0 0.0 0.00 0.00 0.00 1020.3
20171125044522 68 72 0.0 0.0 0.00 0.00 0.00 1020.3
20171125044422 68 72 0.0 0.0 0.00 0.00 0.00 1020.3
20171125044357 68 72 0.0 0.0 0.00 0.00 0.00 1020.3
20171125044322 68 72 0.0 0.0 0.00 0.00 0.00 1020.3
20171125044222 68 72 0.0 0.0 0.00 0.00 0.00 1020.3
20171125044122 68 72 0.0 0.0 0.00 0.00 0.00 1020.3
20171125043928 68 72 0.0 0.0 0.00 0.00 0.00 1020.2
20171125043922 68 72 0.0 0.0 0.00 0.00 0.00 1020.3
20171125043822 68 72 0.0 0.0 0.00 0.00 0.00 1020.2
20171125043722 68 72 0.0 0.0 0.00 0.00 0.00 1020.3
20171125043720 68 72 0.0 0.0 0.00 0.00 0.00 1020.2
20171125043643 67 72 0.0 0.0 0.00 0.00 0.00 1020.3
20171125043622 68 72 0.0 0.0 0.00 0.00 0.00 1020.2
20171125043522 67 72 0.0 0.0 0.00 0.00 0.00 1020.3
20171125043422 67 72 0.0 0.0 0.00 0.00 0.00 1020.3
20171125043322 67 72 0.0 0.0 0.00 0.00 0.00 1020.3
20171125043305 67 72 0.0 0.0 0.00 0.00 0.00 1020.3
20171125043222 67 72 0.0 0.0 0.00 0.00 0.00 1020.3
20171125043122 68 72 0.0 0.0 0.00 0.00 0.00 1020.2
20171125043022 68 72 0.0 0.0 0.00 0.00 0.00 1020.2
20171125042959 69 72 0.0 0.0 0.00 0.00 0.00 1020.2
20171125042922 69 72 0.0 0.0 0.00 0.00 0.00 1020.2
20171125042722 69 87 3.0 0.0 0.00 0.00 0.00 1020.2
20171125042624 69 83 3.0 0.0 0.00 0.00 0.00 1020.1
20171125042622 69 90 4.0 0.0 0.00 0.00 0.00 1020.2
20171125042533 69 105 3.0 0.0 0.00 0.00 0.00 1020.1
20171125042522 69 83 3.0 0.0 0.00 0.00 0.00 1020.1
20171125042422 69 105 3.0 0.0 0.00 0.00 0.00 1020.1
20171125042357 69 90 3.0 0.0 0.00 0.00 0.00 1020.1
20171125042333 69 82 4.0 0.0 0.00 0.00 0.00 1020.1
20171125042322 69 90 3.0 0.0 0.00 0.00 0.00 1020.1
20171125042223 69 82 4.0 0.0 0.00 0.00 0.00 1020.1
20171125042147 69 101 4.0 0.0 0.00 0.00 0.00 1020.0
20171125042122 69 124 6.0 0.0 0.00 0.00 0.00 1020.0
20171125042022 69 101 4.0 0.0 0.00 0.00 0.00 1020.0
20171125041936 69 97 4.0 0.0 0.00 0.00 0.00 1020.0
20171125041922 69 86 6.0 0.0 0.00 0.00 0.00 1020.0
20171125041822 69 97 4.0 0.0 0.00 0.00 0.00 1020.0
20171125041722 69 86 4.0 0.0 0.00 0.00 0.00 1020.0
20171125041622 69 83 5.0 0.0 0.00 0.00 0.00 1020.0
20171125041522 69 77 5.0 0.0 0.00 0.00 0.00 1020.0
20171125041423 69 90 5.0 0.0 0.00 0.00 0.00 1020.1
20171125041322 68 76 5.0 0.0 0.00 0.00 0.00 1020.0
20171125041222 68 84 5.0 0.0 0.00 0.00 0.00 1020.0
20171125041022 68 100 5.0 0.0 0.00 0.00 0.00 1020.0
20171125040922 69 100 5.0 0.0 0.00 0.00 0.00 1020.0
20171125040722 69 90 5.0 0.0 0.00 0.00 0.00 1020.0
20171125040622 69 101 4.0 0.0 0.00 0.00 0.00 1020.0
20171125040614 69 91 5.0 0.0 0.00 0.00 0.00 1020.0
20171125040522 69 91 5.0 0.0 0.00 0.00 0.00 1020.0
20171125040422 69 94 6.0 0.0 0.00 0.00 0.00 1020.0
20171125040322 69 80 5.0 0.0 0.00 0.00 0.00 1019.9
20171125040304 68 90 5.0 0.0 0.00 0.00 0.00 1020.0
20171125040236 68 101 5.0 0.0 0.00 0.00 0.00 1020.0
20171125040222 68 90 5.0 0.0 0.00 0.00 0.00 1020.0
20171125040142 68 77 4.0 0.0 0.00 0.00 0.00 1020.0
20171125040122 68 101 5.0 0.0 0.00 0.00 0.00 1020.0
20171125040022 68 77 4.0 0.0 0.00 0.00 0.00 1020.0
20171125035942 69 83 4.0 0.0 0.00 0.00 0.00 1020.0
20171125035922 68 113 5.0 0.0 0.00 0.00 0.00 1020.0
20171125035822 69 83 4.0 0.0 0.00 0.00 0.00 1020.0
20171125035758 69 90 4.0 0.0 0.00 0.00 0.00 1019.9
20171125035722 69 96 4.0 0.0 0.00 0.00 0.00 1020.0
20171125035622 69 90 4.0 0.0 0.00 0.00 0.00 1019.9
20171125035537 69 93 5.0 0.0 0.00 0.00 0.00 1019.9
20171125035522 69 83 5.0 0.0 0.00 0.00 0.00 1019.9
20171125035444 70 124 5.0 0.0 0.00 0.00 0.00 1019.9
20171125035422 69 93 5.0 0.0 0.00 0.00 0.00 1019.9
20171125035322 70 124 5.0 0.0 0.00 0.00 0.00 1019.9
20171125035223 69 93 5.0 0.0 0.00 0.00 0.00 1019.8
20171125035122 69 97 6.0 0.0 0.00 0.00 0.00 1019.8
20171125035022 69 101 5.0 0.0 0.00 0.00 0.00 1019.8
20171125034922 69 98 4.0 0.0 0.00 0.00 0.00 1019.8
20171125034822 68 89 7.0 0.0 0.00 0.00 0.00 1019.8
20171125034722 68 68 6.0 0.0 0.00 0.00 0.00 1019.7
20171125034622 68 104 6.0 0.0 0.00 0.00 0.00 1019.8
20171125034522 68 86 7.0 0.0 0.00 0.00 0.00 1019.7
20171125034422 68 94 7.0 0.0 0.00 0.00 0.00 1019.7
20171125034322 68 93 6.0 0.0 0.00 0.00 0.00 1019.7
20171125034222 68 90 5.0 0.0 0.00 0.00 0.00 1019.7
20171125034122 68 94 7.0 0.0 0.00 0.00 0.00 1019.7
20171125034022 69 105 6.0 0.0 0.00 0.00 0.00 1019.7
20171125033822 69 107 7.0 0.0 0.00 0.00 0.00 1019.6
20171125033722 69 97 7.0 0.0 0.00 0.00 0.00 1019.6
20171125033622 69 111 7.0 0.0 0.00 0.00 0.00 1019.6
20171125033522 68 96 7.0 0.0 0.00 0.00 0.00 1019.6
20171125033422 68 94 6.0 0.0 0.00 0.00 0.00 1019.7
20171125033322 68 94 7.0 0.0 0.00 0.00 0.00 1019.7
20171125033320 68 75 7.0 0.0 0.00 0.00 0.00 1019.6
20171125033222 68 75 7.0 0.0 0.00 0.00 0.00 1019.6
20171125033123 67 82 7.0 0.0 0.00 0.00 0.00 1019.6
20171125033023 67 108 7.0 0.0 0.00 0.00 0.00 1019.6
20171125032922 67 84 6.0 0.0 0.00 0.00 0.00 1019.7
20171125032822 67 75 7.0 0.0 0.00 0.00 0.00 1019.7
20171125032722 67 96 6.0 0.0 0.00 0.00 0.00 1019.6
20171125032622 67 82 5.0 0.0 0.00 0.00 0.00 1019.7
20171125032610 67 63 6.0 0.0 0.00 0.00 0.00 1019.7
20171125032522 67 63 6.0 0.0 0.00 0.00 0.00 1019.7
20171125032422 67 63 6.0 0.0 0.00 0.00 0.00 1019.7
20171125032338 68 75 6.0 0.0 0.00 0.00 0.00 1019.7
20171125032322 67 93 6.0 0.0 0.00 0.00 0.00 1019.7
20171125032223 68 75 6.0 0.0 0.00 0.00 0.00 1019.7
20171125032130 68 73 7.0 0.0 0.00 0.00 0.00 1019.7
20171125032122 68 90 7.0 0.0 0.00 0.00 0.00 1019.7
20171125032022 68 73 7.0 0.0 0.00 0.00 0.00 1019.7
20171125031922 67 86 7.0 0.0 0.00 0.00 0.00 1019.7
20171125031912 67 104 7.0 0.0 0.00 0.00 0.00 1019.7
20171125031822 67 104 7.0 0.0 0.00 0.00 0.00 1019.7
20171125031722 67 62 7.0 0.0 0.00 0.00 0.00 1019.6
20171125031718 67 97 7.0 0.0 0.00 0.00 0.00 1019.6
20171125031622 67 91 8.0 0.0 0.00 0.00 0.00 1019.6
20171125031523 67 91 8.0 0.0 0.00 0.00 0.00 1019.6
20171125031422 67 79 7.0 0.0 0.00 0.00 0.00 1019.5
20171125031412 67 84 7.0 0.0 0.00 0.00 0.00 1019.5
20171125031322 67 84 7.0 0.0 0.00 0.00 0.00 1019.5
20171125031302 68 97 7.0 0.0 0.00 0.00 0.00 1019.5
20171125031222 68 90 7.0 0.0 0.00 0.00 0.00 1019.4
20171125031204 68 104 7.0 0.0 0.00 0.00 0.00 1019.4
20171125031122 68 97 7.0 0.0 0.00 0.00 0.00 1019.5
20171125031022 68 104 7.0 0.0 0.00 0.00 0.00 1019.4
20171125030922 68 91 7.0 0.0 0.00 0.00 0.00 1019.4
20171125030908 68 97 7.0 0.0 0.00 0.00 0.00 1019.4
20171125030840 68 104 6.0 0.0 0.00 0.00 0.00 1019.5
20171125030822 68 97 7.0 0.0 0.00 0.00 0.00 1019.4
20171125030722 68 104 6.0 0.0 0.00 0.00 0.00 1019.5
20171125030719 68 86 6.0 0.0 0.00 0.00 0.00 1019.5
20171125030658 68 101 6.0 0.0 0.00 0.00 0.00 1019.5
20171125030622 68 86 6.0 0.0 0.00 0.00 0.00 1019.5
20171125030522 68 96 6.0 0.0 0.00 0.00 0.00 1019.5
20171125030422 68 96 6.0 0.0 0.00 0.00 0.00 1019.5
20171125030409 68 98 5.0 0.0 0.00 0.00 0.00 1019.4
20171125030322 68 98 5.0 0.0 0.00 0.00 0.00 1019.4
20171125030247 67 86 6.0 0.0 0.00 0.00 0.00 1019.4
20171125030222 68 105 7.0 0.0 0.00 0.00 0.00 1019.4
20171125030122 67 86 6.0 0.0 0.00 0.00 0.00 1019.4
20171125030116 67 97 6.0 0.0 0.00 0.00 0.00 1019.4
20171125030022 67 97 6.0 0.0 0.00 0.00 0.00 1019.4
20171125030008 67 86 6.0 0.0 0.00 0.00 0.00 1019.4
20171125025922 67 86 6.0 0.0 0.00 0.00 0.00 1019.4
20171125025831 67 84 6.0 0.0 0.00 0.00 0.00 1019.4
20171125025822 67 108 5.0 0.0 0.00 0.00 0.00 1019.4
20171125025722 67 84 6.0 0.0 0.00 0.00 0.00 1019.4
20171125025622 67 84 5.0 0.0 0.00 0.00 0.00 1019.4
20171125025618 67 96 5.0 0.0 0.00 0.00 0.00 1019.4
20171125025522 67 83 5.0 0.0 0.00 0.00 0.00 1019.4
20171125025422 67 83 5.0 0.0 0.00 0.00 0.00 1019.4
20171125025324 67 97 5.0 0.0 0.00 0.00 0.00 1019.4
20171125025322 67 91 6.0 0.0 0.00 0.00 0.00 1019.4
20171125025223 67 97 5.0 0.0 0.00 0.00 0.00 1019.4
20171125025216 67 91 6.0 0.0 0.00 0.00 0.00 1019.4
20171125025153 67 91 6.0 0.0 0.00 0.00 0.00 1019.4
20171125025122 67 91 6.0 0.0 0.00 0.00 0.00 1019.4
20171125025022 67 91 6.0 0.0 0.00 0.00 0.00 1019.4
20171125024822 66 110 5.0 0.0 0.00 0.00 0.00 1019.4
20171125024812 66 84 5.0 0.0 0.00 0.00 0.00 1019.4
20171125024724 66 89 6.0 0.0 0.00 0.00 0.00 1019.4
20171125024722 66 84 5.0 0.0 0.00 0.00 0.00 1019.4
20171125024622 66 89 6.0 0.0 0.00 0.00 0.00 1019.4
20171125024617 66 103 5.0 0.0 0.00 0.00 0.00 1019.4
20171125024522 66 103 5.0 0.0 0.00 0.00 0.00 1019.4
20171125024506 66 86 0.0 0.0 0.00 0.00 0.00 1019.4
20171125024429 66 86 0.0 0.0 0.00 0.00 0.00 1019.4
20171125024422 66 86 0.0 0.0 0.00 0.00 0.00 1019.4
20171125024322 66 86 0.0 0.0 0.00 0.00 0.00 1019.4
20171125024222 66 86 0.0 0.0 0.00 0.00 0.00 1019.4
20171125024207 66 97 3.0 0.0 0.00 0.00 0.00 1019.4
20171125024122 66 97 3.0 0.0 0.00 0.00 0.00 1019.4
20171125024109 66 83 0.0 0.0 0.00 0.00 0.00 1019.5
20171125024022 66 83 0.0 0.0 0.00 0.00 0.00 1019.5
20171125024008 66 83 0.0 0.0 0.00 0.00 0.00 1019.4
20171125023922 66 83 0.0 0.0 0.00 0.00 0.00 1019.4
20171125023854 66 83 0.0 0.0 0.00 0.00 0.00 1019.5
20171125023822 66 83 0.0 0.0 0.00 0.00 0.00 1019.5
20171125023808 66 83 0.0 0.0 0.00 0.00 0.00 1019.5
20171125023722 66 83 0.0 0.0 0.00 0.00 0.00 1019.5
20171125023622 66 83 0.0 0.0 0.00 0.00 0.00 1019.5
20171125023600 66 83 0.0 0.0 0.00 0.00 0.00 1019.5
20171125023540 66 83 0.0 0.0 0.00 0.00 0.00 1019.4
20171125023522 66 83 0.0 0.0 0.00 0.00 0.00 1019.5
20171125023439 66 83 0.0 0.0 0.00 0.00 0.00 1019.4
20171125023422 66 83 0.0 0.0 0.00 0.00 0.00 1019.4
20171125023322 66 83 0.0 0.0 0.00 0.00 0.00 1019.4
20171125023311 66 83 0.0 0.0 0.00 0.00 0.00 1019.4
20171125023222 66 83 0.0 0.0 0.00 0.00 0.00 1019.4
20171125023122 66 83 0.0 0.0 0.00 0.00 0.00 1019.4
20171125023117 66 83 0.0 0.0 0.00 0.00 0.00 1019.4
20171125023022 66 83 0.0 0.0 0.00 0.00 0.00 1019.4
20171125022957 65 83 0.0 0.0 0.00 0.00 0.00 1019.4
20171125022922 65 83 0.0 0.0 0.00 0.00 0.00 1019.4
20171125022822 65 83 0.0 0.0 0.00 0.00 0.00 1019.4
20171125022744 65 83 0.0 0.0 0.00 0.00 0.00 1019.3
20171125022722 65 83 0.0 0.0 0.00 0.00 0.00 1019.4
20171125022701 66 83 0.0 0.0 0.00 0.00 0.00 1019.3
20171125022622 65 83 0.0 0.0 0.00 0.00 0.00 1019.3
20171125022522 66 83 0.0 0.0 0.00 0.00 0.00 1019.3
20171125022442 66 83 0.0 0.0 0.00 0.00 0.00 1019.3
20171125022422 66 83 0.0 0.0 0.00 0.00 0.00 1019.3
20171125022335 66 83 0.0 0.0 0.00 0.00 0.00 1019.2
20171125022322 66 83 0.0 0.0 0.00 0.00 0.00 1019.3
20171125022228 66 76 4.0 0.0 0.00 0.00 0.00 1019.3
20171125022223 66 83 0.0 0.0 0.00 0.00 0.00 1019.2
20171125022202 66 59 0.0 0.0 0.00 0.00 0.00 1019.3
20171125022122 66 76 4.0 0.0 0.00 0.00 0.00 1019.3
20171125022035 66 59 0.0 0.0 0.00 0.00 0.00 1019.2
20171125022022 66 59 0.0 0.0 0.00 0.00 0.00 1019.3
20171125021949 66 59 0.0 0.0 0.00 0.00 0.00 1019.2
20171125021922 66 59 0.0 0.0 0.00 0.00 0.00 1019.2
20171125021822 66 59 0.0 0.0 0.00 0.00 0.00 1019.2
20171125021804 66 59 0.0 0.0 0.00 0.00 0.00 1019.2
20171125021731 66 75 0.0 0.0 0.00 0.00 0.00 1019.2
20171125021722 66 59 0.0 0.0 0.00 0.00 0.00 1019.2
20171125021623 66 75 0.0 0.0 0.00 0.00 0.00 1019.2
20171125021522 66 79 3.0 0.0 0.00 0.00 0.00 1019.2
20171125021506 66 98 4.0 0.0 0.00 0.00 0.00 1019.2
20171125021437 66 75 4.0 0.0 0.00 0.00 0.00 1019.2
20171125021422 66 98 4.0 0.0 0.00 0.00 0.00 1019.2
20171125021322 66 75 4.0 0.0 0.00 0.00 0.00 1019.2
20171125021318 66 90 3.0 0.0 0.00 0.00 0.00 1019.2
20171125021222 66 100 4.0 0.0 0.00 0.00 0.00 1019.2
20171125021136 66 75 4.0 0.0 0.00 0.00 0.00 1019.2
20171125021122 66 100 4.0 0.0 0.00 0.00 0.00 1019.2
20171125021022 66 75 4.0 0.0 0.00 0.00 0.00 1019.2
20171125021006 66 86 0.0 0.0 0.00 0.00 0.00 1019.2
20171125020922 66 86 0.0 0.0 0.00 0.00 0.00 1019.2
20171125020829 66 86 0.0 0.0 0.00 0.00 0.00 1019.2
20171125020822 66 86 0.0 0.0 0.00 0.00 0.00 1019.2
20171125020722 66 86 0.0 0.0 0.00 0.00 0.00 1019.2
20171125020711 66 86 0.0 0.0 0.00 0.00 0.00 1019.2
20171125020622 66 86 0.0 0.0 0.00 0.00 0.00 1019.2
20171125020617 66 86 0.0 0.0 0.00 0.00 0.00 1019.2
20171125020538 66 86 0.0 0.0 0.00 0.00 0.00 1019.2
20171125020522 66 86 0.0 0.0 0.00 0.00 0.00 1019.2
20171125020451 66 96 3.0 0.0 0.00 0.00 0.00 1019.2
20171125020422 66 86 0.0 0.0 0.00 0.00 0.00 1019.2
20171125020322 66 96 3.0 0.0 0.00 0.00 0.00 1019.2
20171125020224 66 86 3.0 0.0 0.00 0.00 0.00 1019.2
20171125020222 66 91 3.0 0.0 0.00 0.00 0.00 1019.2
20171125020122 66 86 3.0 0.0 0.00 0.00 0.00 1019.2
20171125020022 66 89 4.0 0.0 0.00 0.00 0.00 1019.2
20171125015937 66 89 0.0 0.0 0.00 0.00 0.00 1019.2
20171125015922 66 89 0.0 0.0 0.00 0.00 0.00 1019.2
20171125015823 67 89 0.0 0.0 0.00 0.00 0.00 1019.1
20171125015722 67 89 0.0 0.0 0.00 0.00 0.00 1019.1
20171125015704 67 89 0.0 0.0 0.00 0.00 0.00 1019.2
20171125015628 66 89 0.0 0.0 0.00 0.00 0.00 1019.1
20171125015622 67 89 0.0 0.0 0.00 0.00 0.00 1019.2
20171125015531 65 89 0.0 0.0 0.00 0.00 0.00 1019.1
20171125015522 66 89 0.0 0.0 0.00 0.00 0.00 1019.1
20171125015433 65 89 0.0 0.0 0.00 0.00 0.00 1019.2
20171125015422 65 89 0.0 0.0 0.00 0.00 0.00 1019.1
20171125015322 65 89 0.0 0.0 0.00 0.00 0.00 1019.2
20171125015300 65 89 0.0 0.0 0.00 0.00 0.00 1019.1
20171125015225 65 89 0.0 0.0 0.00 0.00 0.00 1019.2
20171125015222 65 89 0.0 0.0 0.00 0.00 0.00 1019.1
20171125015127 66 89 0.0 0.0 0.00 0.00 0.00 1019.2
20171125015122 65 89 0.0 0.0 0.00 0.00 0.00 1019.2
20171125015038 66 89 0.0 0.0 0.00 0.00 0.00 1019.2
20171125015022 66 89 0.0 0.0 0.00 0.00 0.00 1019.2
20171125014922 66 89 0.0 0.0 0.00 0.00 0.00 1019.2
20171125014823 66 89 0.0 0.0 0.00 0.00 0.00 1019.1
20171125014722 66 89 0.0 0.0 0.00 0.00 0.00 1019.1
20171125014710 66 89 0.0 0.0 0.00 0.00 0.00 1019.1
20171125014623 66 89 0.0 0.0 0.00 0.00 0.00 1019.1
20171125014522 66 89 0.0 0.0 0.00 0.00 0.00 1019.1
20171125014439 66 89 0.0 0.0 0.00 0.00 0.00 1019.0
20171125014422 66 89 0.0 0.0 0.00 0.00 0.00 1019.1
20171125014339 66 89 0.0 0.0 0.00 0.00 0.00 1019.0
20171125014322 66 89 0.0 0.0 0.00 0.00 0.00 1019.0
20171125014222 66 89 0.0 0.0 0.00 0.00 0.00 1019.0
20171125014203 66 89 0.0 0.0 0.00 0.00 0.00 1019.0
20171125014124 66 89 0.0 0.0 0.00 0.00 0.00 1018.9
20171125014122 66 89 0.0 0.0 0.00 0.00 0.00 1019.0
20171125014024 66 89 0.0 0.0 0.00 0.00 0.00 1018.9
20171125014022 66 89 0.0 0.0 0.00 0.00 0.00 1018.9